CFG003 HEGN-EDDH

Flight info

Callsign CFG003
Flight time 5h 5m
Altitude 32000
Route HGD V608 NABED T55 KUNKI/N0470F340 P751 METRU UM872 PLH UL604 TRL DCT TUMBO DCT RETRA DCT POD DCT NILKU DCT GUBOK DCT VEBAL/N0449F350 DCT STEIN/N0448F360 DCT LANUX DCT LALUK DCT SOGMA M748 RARUP RARUP3P
Aircraft A21N/M-SBDE3FGHIJ1J4J7LORVWXYZ/SB2D1G1

Departure

Time 2026-04-26 11:54
Airport Hurghada International Airport (HEGN)

Arrival

Time 2026-04-26 16:59
Airport Hamburg Helmut Schmidt Airport (EDDH)
Time Latitude Longitude Altitude Speed Heading
2026-04-26 10:07 27.17604 33.80521 54 ft 0 kts 255°
2026-04-26 11:35 27.17607 33.80534 54 ft 4 kts 259°
2026-04-26 11:35 27.17609 33.80563 54 ft 4 kts 276°
2026-04-26 11:35 27.17602 33.80590 57 ft 4 kts 310°
2026-04-26 11:35 27.17587 33.80602 57 ft 1 kts 345°
2026-04-26 11:36 27.17584 33.80603 58 ft 0 kts 345°
2026-04-26 11:40 27.17586 33.80602 63 ft 0 kts 345°
2026-04-26 11:40 27.17601 33.80598 58 ft 4 kts 345°
2026-04-26 11:40 27.17640 33.80587 57 ft 7 kts 346°
2026-04-26 11:40 27.17697 33.80570 62 ft 9 kts 345°
2026-04-26 11:41 27.17761 33.80550 59 ft 10 kts 345°
2026-04-26 11:42 27.17881 33.80263 56 ft 8 kts 346°
2026-04-26 11:43 27.17941 33.80246 55 ft 9 kts 345°
2026-04-26 11:43 27.18007 33.80227 58 ft 10 kts 345°
2026-04-26 11:43 27.18078 33.80205 57 ft 11 kts 345°
2026-04-26 11:43 27.18153 33.80183 52 ft 12 kts 345°
2026-04-26 11:44 27.18232 33.80160 56 ft 12 kts 345°
2026-04-26 11:44 27.18317 33.80135 53 ft 13 kts 345°
2026-04-26 11:44 27.18404 33.80110 50 ft 13 kts 345°
2026-04-26 11:44 27.18494 33.80083 55 ft 14 kts 345°
2026-04-26 11:45 27.18589 33.80054 52 ft 15 kts 345°
2026-04-26 11:45 27.18692 33.80024 58 ft 16 kts 345°
2026-04-26 11:45 27.18798 33.79992 57 ft 16 kts 345°
2026-04-26 11:45 27.18910 33.79960 62 ft 17 kts 345°
2026-04-26 11:46 27.19006 33.79931 65 ft 11 kts 345°
2026-04-26 11:46 27.19081 33.79909 63 ft 10 kts 345°
2026-04-26 11:46 27.19128 33.79883 62 ft 7 kts 302°
2026-04-26 11:46 27.19127 33.79829 61 ft 7 kts 255°
2026-04-26 11:47 27.19114 33.79771 64 ft 8 kts 256°
2026-04-26 11:47 27.19100 33.79708 63 ft 9 kts 255°
2026-04-26 11:47 27.19084 33.79641 60 ft 9 kts 255°
2026-04-26 11:47 27.19066 33.79567 60 ft 11 kts 255°
2026-04-26 11:48 27.19046 33.79481 64 ft 12 kts 255°
2026-04-26 11:48 27.19022 33.79382 63 ft 14 kts 255°
2026-04-26 11:48 27.18995 33.79269 71 ft 15 kts 255°
2026-04-26 11:48 27.18966 33.79152 87 ft 14 kts 255°
2026-04-26 11:49 27.18947 33.79073 89 ft 9 kts 255°
2026-04-26 11:49 27.18935 33.79027 91 ft 6 kts 258°
2026-04-26 11:49 27.18954 33.78984 92 ft 7 kts 325°
2026-04-26 11:49 27.19001 33.78966 95 ft 8 kts 345°
2026-04-26 11:50 27.19057 33.78950 91 ft 9 kts 345°
2026-04-26 11:50 27.19127 33.78929 91 ft 11 kts 345°
2026-04-26 11:50 27.19200 33.78908 89 ft 11 kts 345°
2026-04-26 11:50 27.19281 33.78884 89 ft 13 kts 345°
2026-04-26 11:51 27.19357 33.78861 91 ft 5 kts 344°
2026-04-26 11:51 27.19362 33.78860 92 ft 0 kts 342°
2026-04-26 11:51 27.19370 33.78857 92 ft 3 kts 340°
2026-04-26 11:51 27.19400 33.78833 91 ft 6 kts 308°
2026-04-26 11:52 27.19406 33.78788 92 ft 6 kts 259°
2026-04-26 11:52 27.19398 33.78758 92 ft 7 kts 254°
2026-04-26 11:52 27.19382 33.78700 93 ft 0 kts 238°
2026-04-26 11:52 27.19362 33.78678 92 ft 8 kts 210°
2026-04-26 11:53 27.19288 33.78682 94 ft 15 kts 165°
2026-04-26 11:53 27.19051 33.78753 95 ft 62 kts 165°
2026-04-26 11:53 27.18447 33.78932 105 ft 116 kts 165°
2026-04-26 11:54 27.16328 33.79552 301 ft 181 kts 166°
2026-04-26 11:54 27.15088 33.79817 780 ft 181 kts 168°
2026-04-26 11:54 27.13843 33.80035 1314 ft 181 kts 168°
2026-04-26 11:54 27.12561 33.80247 1679 ft 191 kts 171°
2026-04-26 11:55 27.11210 33.80181 2031 ft 199 kts 196°
2026-04-26 11:55 27.09966 33.79460 2414 ft 205 kts 221°
2026-04-26 11:55 27.09109 33.78214 2849 ft 199 kts 246°
2026-04-26 11:55 27.08820 33.76731 3314 ft 193 kts 271°
2026-04-26 11:56 27.09130 33.75307 3733 ft 192 kts 296°
2026-04-26 11:56 27.09942 33.74069 3961 ft 202 kts 309°
2026-04-26 11:56 27.10895 33.72888 4290 ft 206 kts 308°
2026-04-26 11:56 27.11660 33.71536 4618 ft 206 kts 290°
2026-04-26 11:57 27.12072 33.69988 4936 ft 208 kts 282°
2026-04-26 11:57 27.12429 33.68401 5278 ft 211 kts 282°
2026-04-26 11:57 27.12817 33.66782 5533 ft 220 kts 283°
2026-04-26 11:57 27.13261 33.65089 5696 ft 230 kts 283°
2026-04-26 11:58 27.13720 33.63357 5992 ft 233 kts 283°
2026-04-26 11:58 27.14184 33.61613 6357 ft 233 kts 283°
2026-04-26 11:58 27.14645 33.59873 6713 ft 233 kts 283°
2026-04-26 11:58 27.15106 33.58125 7043 ft 234 kts 283°
2026-04-26 11:59 27.15579 33.56360 7336 ft 237 kts 283°
2026-04-26 11:59 27.16051 33.54583 7667 ft 238 kts 283°
2026-04-26 11:59 27.16525 33.52797 8026 ft 239 kts 282°
2026-04-26 11:59 27.17004 33.51004 8373 ft 240 kts 283°
2026-04-26 12:00 27.17486 33.49189 8769 ft 244 kts 283°
2026-04-26 12:00 27.17973 33.47358 9187 ft 245 kts 282°
2026-04-26 12:00 27.18449 33.45554 9560 ft 243 kts 282°
2026-04-26 12:00 27.18928 33.43729 9878 ft 243 kts 282°
2026-04-26 12:01 27.19407 33.41906 10176 ft 244 kts 282°
2026-04-26 12:01 27.19883 33.40079 10476 ft 244 kts 283°
2026-04-26 12:01 27.20365 33.38251 10781 ft 244 kts 283°
2026-04-26 12:01 27.20846 33.36431 10976 ft 243 kts 282°
2026-04-26 12:02 27.21320 33.34616 11019 ft 242 kts 282°
2026-04-26 12:02 27.21619 33.33415 11017 ft 241 kts 279°
2026-04-26 12:02 27.21931 33.30925 11011 ft 239 kts 272°
2026-04-26 12:02 27.22072 33.29065 11003 ft 241 kts 272°
2026-04-26 12:03 27.22217 33.27183 10996 ft 242 kts 272°
2026-04-26 12:03 27.22365 33.25307 11013 ft 240 kts 272°
2026-04-26 12:03 27.22515 33.23438 11011 ft 240 kts 272°
2026-04-26 12:03 27.22667 33.21580 11009 ft 239 kts 272°
2026-04-26 12:04 27.22820 33.19721 11003 ft 238 kts 272°
2026-04-26 12:04 27.22972 33.17865 11013 ft 239 kts 272°
2026-04-26 12:04 27.23124 33.16007 11011 ft 239 kts 272°
2026-04-26 12:04 27.23272 33.14175 11015 ft 237 kts 271°
2026-04-26 12:05 27.23421 33.12335 11017 ft 236 kts 271°
2026-04-26 12:05 27.23571 33.10497 11015 ft 236 kts 271°
2026-04-26 12:05 27.23719 33.08658 11016 ft 236 kts 271°
2026-04-26 12:05 27.23869 33.06817 11015 ft 236 kts 271°
2026-04-26 12:06 27.24018 33.04980 11012 ft 237 kts 271°
2026-04-26 12:06 27.24168 33.03137 11017 ft 236 kts 271°
2026-04-26 12:06 27.24315 33.01297 11013 ft 237 kts 271°
2026-04-26 12:06 27.24464 32.99449 11017 ft 237 kts 271°
2026-04-26 12:07 27.24613 32.97609 11018 ft 236 kts 271°
2026-04-26 12:07 27.24762 32.95775 11016 ft 236 kts 271°
2026-04-26 12:07 27.24909 32.93937 11021 ft 236 kts 271°
2026-04-26 12:07 27.25055 32.92123 11022 ft 236 kts 271°
2026-04-26 12:08 27.25203 32.90261 11024 ft 236 kts 271°
2026-04-26 12:08 27.25350 32.88418 11013 ft 236 kts 271°
2026-04-26 12:08 27.25495 32.86571 11191 ft 248 kts 271°
2026-04-26 12:08 27.25650 32.84566 11390 ft 266 kts 271°
2026-04-26 12:09 27.25816 32.82422 11594 ft 284 kts 272°
2026-04-26 12:09 27.25995 32.80137 11795 ft 302 kts 272°
2026-04-26 12:09 27.26189 32.77717 11989 ft 319 kts 272°
2026-04-26 12:09 27.26395 32.75173 12186 ft 335 kts 272°
2026-04-26 12:10 27.26607 32.72510 12502 ft 346 kts 272°
2026-04-26 12:10 27.26817 32.69826 13042 ft 351 kts 272°
2026-04-26 12:10 27.27034 32.67090 13651 ft 353 kts 273°
2026-04-26 12:10 27.27249 32.64333 14218 ft 355 kts 273°
2026-04-26 12:11 27.27468 32.61555 14764 ft 357 kts 273°
2026-04-26 12:11 27.27690 32.58762 15265 ft 360 kts 273°
2026-04-26 12:11 27.27911 32.55935 15772 ft 363 kts 272°
2026-04-26 12:11 27.28132 32.53096 16305 ft 365 kts 272°
2026-04-26 12:12 27.28354 32.50240 16857 ft 368 kts 272°
2026-04-26 12:12 27.28575 32.47362 17383 ft 370 kts 273°
2026-04-26 12:12 27.28791 32.44465 17872 ft 373 kts 273°
2026-04-26 12:12 27.28937 32.42529 18217 ft 375 kts 273°
2026-04-26 12:13 27.29232 32.38644 18800 ft 378 kts 273°
2026-04-26 12:13 27.29457 32.35689 19249 ft 380 kts 273°
2026-04-26 12:13 27.29720 32.32733 19724 ft 382 kts 276°
2026-04-26 12:13 27.30295 32.29802 20185 ft 386 kts 284°
2026-04-26 12:14 27.31320 32.26985 20631 ft 392 kts 293°
2026-04-26 12:14 27.32790 32.24368 21064 ft 399 kts 301°
2026-04-26 12:14 27.34484 32.21885 21488 ft 402 kts 303°
2026-04-26 12:14 27.36218 32.19398 21895 ft 404 kts 303°
2026-04-26 12:15 27.37950 32.16897 22309 ft 406 kts 302°
2026-04-26 12:15 27.39692 32.14379 22715 ft 408 kts 302°
2026-04-26 12:15 27.41432 32.11847 23113 ft 411 kts 302°
2026-04-26 12:15 27.43182 32.09292 23497 ft 413 kts 302°
2026-04-26 12:16 27.44919 32.06756 23866 ft 415 kts 302°
2026-04-26 12:16 27.46676 32.04181 24233 ft 415 kts 302°
2026-04-26 12:16 27.48441 32.01597 24617 ft 416 kts 302°
2026-04-26 12:16 27.50210 31.99007 24964 ft 417 kts 302°
2026-04-26 12:17 27.51983 31.96409 25331 ft 418 kts 302°
2026-04-26 12:17 27.53755 31.93808 25656 ft 419 kts 302°
2026-04-26 12:17 27.55538 31.91195 25980 ft 421 kts 302°
2026-04-26 12:17 27.57324 31.88575 26322 ft 422 kts 302°
2026-04-26 12:18 27.58503 31.86836 26521 ft 423 kts 302°
2026-04-26 12:18 27.60291 31.84204 26851 ft 424 kts 302°
2026-04-26 12:18 27.62089 31.81557 27154 ft 425 kts 302°
2026-04-26 12:18 27.64473 31.78047 27676 ft 424 kts 302°
2026-04-26 12:19 27.66259 31.75418 28166 ft 420 kts 302°
2026-04-26 12:19 27.68026 31.72808 28626 ft 417 kts 301°
2026-04-26 12:19 27.69221 31.71050 28919 ft 416 kts 301°
2026-04-26 12:19 27.70955 31.68499 29324 ft 414 kts 301°
2026-04-26 12:20 27.72698 31.65922 29713 ft 412 kts 301°
2026-04-26 12:20 27.74431 31.63361 30056 ft 410 kts 301°
2026-04-26 12:20 27.76165 31.60803 30307 ft 409 kts 301°
2026-04-26 12:20 27.77890 31.58255 30540 ft 408 kts 301°
2026-04-26 12:21 27.79612 31.55708 30768 ft 407 kts 301°
2026-04-26 12:21 27.81325 31.53168 31004 ft 405 kts 300°
2026-04-26 12:21 27.83030 31.50643 31255 ft 402 kts 300°
2026-04-26 12:21 27.84724 31.48134 31499 ft 400 kts 300°
2026-04-26 12:22 27.86409 31.45629 31740 ft 399 kts 300°
2026-04-26 12:22 27.88091 31.43135 32018 ft 398 kts 300°
2026-04-26 12:22 27.89739 31.40670 32105 ft 397 kts 299°
2026-04-26 12:23 27.93055 31.35691 32082 ft 396 kts 300°
2026-04-26 12:23 27.96381 31.30733 32074 ft 396 kts 300°
2026-04-26 12:24 27.99721 31.25765 32076 ft 396 kts 300°
2026-04-26 12:24 28.03061 31.20805 32088 ft 394 kts 300°
2026-04-26 12:25 28.07939 31.13374 32079 ft 391 kts 297°
2026-04-26 12:25 28.10965 31.08259 32076 ft 391 kts 297°
2026-04-26 12:26 28.13987 31.03132 32067 ft 391 kts 297°
2026-04-26 12:26 28.17005 30.98009 32071 ft 391 kts 297°
2026-04-26 12:27 28.20030 30.92879 32069 ft 389 kts 297°
2026-04-26 12:27 28.23030 30.87779 32063 ft 389 kts 297°
2026-04-26 12:28 28.26033 30.82672 32062 ft 389 kts 297°
2026-04-26 12:28 28.29025 30.77563 32062 ft 388 kts 296°
2026-04-26 12:29 28.31990 30.72483 32080 ft 388 kts 296°
2026-04-26 12:30 28.36482 30.64822 32054 ft 388 kts 296°
2026-04-26 12:30 28.39473 30.59708 32044 ft 388 kts 297°
2026-04-26 12:31 28.43957 30.52030 32058 ft 388 kts 296°
2026-04-26 12:31 28.46930 30.46952 32047 ft 388 kts 296°
2026-04-26 12:32 28.49914 30.41828 32045 ft 388 kts 296°
2026-04-26 12:33 28.54375 30.34147 32045 ft 388 kts 296°
2026-04-26 12:33 28.57353 30.29023 32046 ft 388 kts 296°
2026-04-26 12:34 28.60324 30.23889 32038 ft 388 kts 296°
2026-04-26 12:34 28.63278 30.18797 32036 ft 388 kts 296°
2026-04-26 12:35 28.66246 30.13665 32031 ft 388 kts 296°
2026-04-26 12:35 28.69213 30.08526 32031 ft 388 kts 296°
2026-04-26 12:36 28.72171 30.03382 32026 ft 388 kts 296°
2026-04-26 12:36 28.75136 29.98242 32061 ft 388 kts 296°
2026-04-26 12:37 28.78081 29.93117 32031 ft 389 kts 296°
2026-04-26 12:37 28.81052 29.87943 32023 ft 389 kts 296°
2026-04-26 12:38 28.84024 29.82769 32017 ft 389 kts 296°
2026-04-26 12:38 28.86988 29.77590 32011 ft 390 kts 296°
2026-04-26 12:39 28.89949 29.72413 32012 ft 390 kts 296°
2026-04-26 12:39 28.92912 29.67236 32010 ft 390 kts 296°
2026-04-26 12:40 28.95843 29.62081 32008 ft 389 kts 296°
2026-04-26 12:40 28.98793 29.56887 32010 ft 390 kts 296°
2026-04-26 12:41 29.01764 29.51703 32014 ft 390 kts 296°
2026-04-26 12:41 29.04725 29.46500 32007 ft 390 kts 296°
2026-04-26 12:42 29.07673 29.41324 32006 ft 390 kts 296°
2026-04-26 12:42 29.10641 29.36106 32006 ft 390 kts 297°
2026-04-26 12:43 29.14255 29.31367 32004 ft 407 kts 312°
2026-04-26 12:43 29.18802 29.27420 32024 ft 410 kts 314°
2026-04-26 12:44 29.23363 29.23512 32010 ft 409 kts 314°
2026-04-26 12:44 29.27867 29.19613 32003 ft 408 kts 314°
2026-04-26 12:45 29.32392 29.15691 32003 ft 408 kts 314°
2026-04-26 12:45 29.36907 29.11752 32001 ft 408 kts 314°
2026-04-26 12:46 29.41427 29.07807 32002 ft 408 kts 314°
2026-04-26 12:46 29.45951 29.03871 32002 ft 408 kts 314°
2026-04-26 12:47 29.50428 28.99958 32035 ft 407 kts 314°
2026-04-26 12:47 29.54964 28.95986 32005 ft 408 kts 314°
2026-04-26 12:48 29.59438 28.92059 31997 ft 406 kts 314°
2026-04-26 12:48 29.63933 28.88114 31992 ft 406 kts 314°
2026-04-26 12:49 29.68429 28.84172 31987 ft 406 kts 314°
2026-04-26 12:49 29.72918 28.80214 31988 ft 406 kts 314°
2026-04-26 12:50 29.77410 28.76257 31995 ft 406 kts 314°
2026-04-26 12:50 29.81892 28.72301 32030 ft 406 kts 314°
2026-04-26 12:51 29.86405 28.68316 31998 ft 410 kts 314°
2026-04-26 12:51 29.90891 28.64330 31986 ft 409 kts 314°
2026-04-26 12:52 29.95401 28.60311 31980 ft 410 kts 315°
2026-04-26 12:52 29.99926 28.56302 31980 ft 410 kts 315°
2026-04-26 12:53 30.04437 28.52288 31982 ft 410 kts 315°
2026-04-26 12:53 30.08961 28.48273 31979 ft 410 kts 315°
2026-04-26 12:54 30.13479 28.44259 31980 ft 410 kts 314°
2026-04-26 12:54 30.17994 28.40242 31983 ft 410 kts 315°
2026-04-26 12:55 30.22524 28.36223 31987 ft 410 kts 315°
2026-04-26 12:55 30.27050 28.32201 31982 ft 410 kts 315°
2026-04-26 12:56 30.31542 28.28182 31978 ft 410 kts 315°
2026-04-26 12:56 30.36058 28.24136 31980 ft 410 kts 315°
2026-04-26 12:57 30.40577 28.20093 31981 ft 410 kts 315°
2026-04-26 12:57 30.45094 28.16042 32011 ft 411 kts 315°
2026-04-26 12:58 30.51889 28.09917 31984 ft 413 kts 315°
2026-04-26 12:58 30.56398 28.05868 31993 ft 412 kts 315°
2026-04-26 12:59 30.60912 28.01828 31982 ft 409 kts 316°
2026-04-26 12:59 30.65430 27.97801 31983 ft 409 kts 315°
2026-04-26 13:00 30.69929 27.93751 31987 ft 409 kts 315°
2026-04-26 13:00 30.74411 27.89695 31987 ft 409 kts 315°
2026-04-26 13:01 30.78909 27.85627 32004 ft 410 kts 316°
2026-04-26 13:01 30.83412 27.81541 31990 ft 411 kts 316°
2026-04-26 13:02 30.87889 27.77473 31986 ft 411 kts 316°
2026-04-26 13:02 30.92398 27.73376 31985 ft 411 kts 316°
2026-04-26 13:03 30.96911 27.69292 31985 ft 411 kts 316°
2026-04-26 13:03 31.01419 27.65193 31985 ft 411 kts 316°
2026-04-26 13:04 31.05922 27.61088 31985 ft 411 kts 316°
2026-04-26 13:04 31.10432 27.56966 32000 ft 413 kts 316°
2026-04-26 13:05 31.14493 27.52383 31987 ft 405 kts 303°
2026-04-26 13:05 31.17670 27.46971 31993 ft 404 kts 300°
2026-04-26 13:06 31.20802 27.41526 31993 ft 403 kts 301°
2026-04-26 13:06 31.23949 27.36090 31985 ft 403 kts 301°
2026-04-26 13:07 31.26564 27.31575 31992 ft 403 kts 301°
2026-04-26 13:07 31.30221 27.25264 31993 ft 404 kts 302°
2026-04-26 13:08 31.33436 27.21194 31991 ft 412 kts 317°
2026-04-26 13:08 31.38221 27.17485 31993 ft 416 kts 322°
2026-04-26 13:09 31.43104 27.13845 32020 ft 415 kts 322°
2026-04-26 13:09 31.47979 27.10192 32000 ft 417 kts 322°
2026-04-26 13:10 31.52866 27.06527 31993 ft 417 kts 322°
2026-04-26 13:10 31.57756 27.02852 31992 ft 417 kts 322°
2026-04-26 13:11 31.62645 26.99186 31988 ft 417 kts 323°
2026-04-26 13:11 31.67548 26.95511 32247 ft 418 kts 322°
2026-04-26 13:12 31.69998 26.93673 32487 ft 417 kts 322°
2026-04-26 13:12 31.72439 26.91843 32738 ft 415 kts 322°
2026-04-26 13:12 31.74868 26.90012 33014 ft 414 kts 322°
2026-04-26 13:12 31.77260 26.88208 33270 ft 412 kts 322°
2026-04-26 13:13 31.79664 26.86391 33529 ft 410 kts 322°
2026-04-26 13:13 31.82053 26.84580 33795 ft 407 kts 323°
2026-04-26 13:13 31.84436 26.82776 33990 ft 406 kts 322°
2026-04-26 13:13 31.86827 26.80962 34021 ft 410 kts 322°
2026-04-26 13:14 31.91653 26.77294 33996 ft 414 kts 323°
2026-04-26 13:14 31.96503 26.73632 33990 ft 414 kts 323°
2026-04-26 13:15 32.01330 26.69999 33989 ft 414 kts 323°
2026-04-26 13:15 32.06201 26.66318 33998 ft 418 kts 323°
2026-04-26 13:16 32.11098 26.62597 33990 ft 419 kts 323°
2026-04-26 13:16 32.15992 26.58865 33981 ft 419 kts 323°
2026-04-26 13:17 32.23317 26.53260 33977 ft 416 kts 323°
2026-04-26 13:18 32.30603 26.47710 33987 ft 416 kts 323°
2026-04-26 13:19 32.37890 26.42109 33983 ft 417 kts 324°
2026-04-26 13:19 32.42758 26.38369 33972 ft 417 kts 324°
2026-04-26 13:20 32.47622 26.34644 33982 ft 417 kts 324°
2026-04-26 13:20 32.52490 26.30896 33978 ft 417 kts 324°
2026-04-26 13:21 32.57323 26.27175 33981 ft 417 kts 324°
2026-04-26 13:21 32.62180 26.23434 33996 ft 415 kts 325°
2026-04-26 13:22 32.67037 26.19676 33982 ft 417 kts 325°
2026-04-26 13:22 32.71895 26.15925 33978 ft 417 kts 325°
2026-04-26 13:23 32.76764 26.12152 33980 ft 417 kts 325°
2026-04-26 13:23 32.81594 26.08404 33985 ft 417 kts 325°
2026-04-26 13:24 32.86450 26.04639 33982 ft 417 kts 325°
2026-04-26 13:24 32.91307 26.00857 34001 ft 417 kts 325°
2026-04-26 13:25 32.96167 25.97075 33988 ft 418 kts 325°
2026-04-26 13:25 33.01023 25.93286 33980 ft 416 kts 326°
2026-04-26 13:26 33.05864 25.89514 33978 ft 416 kts 326°
2026-04-26 13:26 33.10702 25.85727 33980 ft 416 kts 326°
2026-04-26 13:27 33.15536 25.81940 33980 ft 416 kts 326°
2026-04-26 13:27 33.20373 25.78155 33986 ft 415 kts 326°
2026-04-26 13:28 33.25196 25.74357 33982 ft 415 kts 326°
2026-04-26 13:28 33.30000 25.70584 33985 ft 415 kts 326°
2026-04-26 13:29 33.34831 25.66788 33977 ft 415 kts 326°
2026-04-26 13:29 33.39658 25.62989 33983 ft 415 kts 326°
2026-04-26 13:30 33.44472 25.59186 33984 ft 414 kts 326°
2026-04-26 13:30 33.49288 25.55378 33993 ft 415 kts 326°
2026-04-26 13:31 33.54119 25.51552 33981 ft 417 kts 326°
2026-04-26 13:31 33.58973 25.47711 33990 ft 417 kts 326°
2026-04-26 13:32 33.63812 25.43878 33995 ft 417 kts 326°
2026-04-26 13:32 33.68653 25.40028 33993 ft 417 kts 326°
2026-04-26 13:33 33.73488 25.36180 33994 ft 417 kts 326°
2026-04-26 13:33 33.78330 25.32323 33981 ft 417 kts 327°
2026-04-26 13:34 33.83169 25.28459 33990 ft 421 kts 327°
2026-04-26 13:34 33.88045 25.24531 33989 ft 421 kts 327°
2026-04-26 13:35 33.92916 25.20603 33993 ft 421 kts 327°
2026-04-26 13:35 33.97813 25.16729 33989 ft 421 kts 327°
2026-04-26 13:36 34.02390 25.12299 33993 ft 423 kts 318°
2026-04-26 13:36 34.06655 25.07393 33994 ft 423 kts 317°
2026-04-26 13:37 34.10898 25.02510 33977 ft 426 kts 318°
2026-04-26 13:37 34.15189 24.97576 33986 ft 425 kts 319°
2026-04-26 13:38 34.19478 24.92641 33998 ft 426 kts 318°
2026-04-26 13:38 34.23763 24.87707 33994 ft 426 kts 319°
2026-04-26 13:39 34.28054 24.82758 33994 ft 426 kts 318°
2026-04-26 13:39 34.32310 24.77839 33994 ft 425 kts 318°
2026-04-26 13:40 34.36593 24.72887 34000 ft 425 kts 318°
2026-04-26 13:40 34.40867 24.67934 34001 ft 426 kts 319°
2026-04-26 13:41 34.45142 24.62959 33999 ft 426 kts 319°
2026-04-26 13:41 34.49422 24.57983 34000 ft 426 kts 319°
2026-04-26 13:42 34.53669 24.52972 34002 ft 426 kts 318°
2026-04-26 13:42 34.57867 24.47879 33999 ft 426 kts 318°
2026-04-26 13:43 34.62041 24.42806 34000 ft 426 kts 318°
2026-04-26 13:43 34.66231 24.37704 33975 ft 426 kts 318°
2026-04-26 13:44 34.70420 24.32600 33999 ft 426 kts 318°
2026-04-26 13:44 34.74609 24.27492 34001 ft 427 kts 318°
2026-04-26 13:45 34.78808 24.22355 34005 ft 428 kts 318°
2026-04-26 13:45 34.83000 24.17218 34005 ft 428 kts 318°
2026-04-26 13:46 34.87191 24.12080 34006 ft 428 kts 318°
2026-04-26 13:46 34.91358 24.06958 34006 ft 428 kts 318°
2026-04-26 13:47 34.95548 24.01802 33996 ft 428 kts 317°
2026-04-26 13:47 34.99735 23.96637 34012 ft 428 kts 317°
2026-04-26 13:48 35.03920 23.91465 34015 ft 428 kts 318°
2026-04-26 13:48 35.08105 23.86286 34020 ft 428 kts 318°
2026-04-26 13:49 35.12263 23.81131 34026 ft 428 kts 318°
2026-04-26 13:49 35.16442 23.75945 34026 ft 428 kts 317°
2026-04-26 13:50 35.20624 23.70750 34024 ft 429 kts 318°
2026-04-26 13:50 35.25376 23.66466 34033 ft 423 kts 335°
2026-04-26 13:51 35.30669 23.63314 34037 ft 423 kts 336°
2026-04-26 13:51 35.35961 23.60180 34050 ft 421 kts 336°
2026-04-26 13:52 35.41194 23.57044 34053 ft 422 kts 336°
2026-04-26 13:52 35.46464 23.53881 34048 ft 422 kts 336°
2026-04-26 13:53 35.51741 23.50709 34055 ft 422 kts 336°
2026-04-26 13:53 35.57013 23.47529 34060 ft 422 kts 336°
2026-04-26 13:54 35.62299 23.44339 34051 ft 423 kts 335°
2026-04-26 13:54 35.67593 23.41140 34033 ft 426 kts 335°
2026-04-26 13:55 35.73788 23.37392 34051 ft 427 kts 335°
2026-04-26 13:56 35.83538 23.31473 34050 ft 427 kts 335°
2026-04-26 13:56 35.87969 23.28782 34055 ft 427 kts 335°
2026-04-26 13:57 35.93301 23.25535 34049 ft 427 kts 335°
2026-04-26 13:57 35.98625 23.22292 34050 ft 427 kts 335°
2026-04-26 13:58 36.03959 23.19031 34050 ft 427 kts 335°
2026-04-26 13:58 36.09249 23.15800 34050 ft 427 kts 335°
2026-04-26 13:59 36.14571 23.12537 34050 ft 427 kts 335°
2026-04-26 13:59 36.19893 23.09273 34037 ft 428 kts 335°
2026-04-26 14:00 36.30557 23.02717 34046 ft 429 kts 335°
2026-04-26 14:01 36.35907 22.99421 34062 ft 429 kts 335°
2026-04-26 14:01 36.41255 22.96123 34051 ft 430 kts 335°
2026-04-26 14:02 36.46608 22.92808 34049 ft 430 kts 335°
2026-04-26 14:02 36.51961 22.89492 34036 ft 430 kts 335°
2026-04-26 14:03 36.57316 22.86169 34035 ft 430 kts 335°
2026-04-26 14:03 36.62668 22.82845 34037 ft 430 kts 334°
2026-04-26 14:04 36.68018 22.79511 34038 ft 430 kts 335°
2026-04-26 14:04 36.73391 22.76175 34030 ft 433 kts 334°
2026-04-26 14:05 36.78742 22.72830 34046 ft 433 kts 334°
2026-04-26 14:05 36.84136 22.69462 34039 ft 433 kts 334°
2026-04-26 14:06 36.89524 22.66093 34039 ft 433 kts 334°
2026-04-26 14:06 36.94916 22.62716 34042 ft 434 kts 334°
2026-04-26 14:07 37.00313 22.59331 34040 ft 434 kts 334°
2026-04-26 14:07 37.05704 22.55940 34043 ft 434 kts 334°
2026-04-26 14:08 37.11095 22.52529 34030 ft 433 kts 334°
2026-04-26 14:08 37.16477 22.49112 34038 ft 433 kts 333°
2026-04-26 14:09 37.21864 22.45709 34034 ft 433 kts 334°
2026-04-26 14:09 37.27231 22.42321 34033 ft 434 kts 333°
2026-04-26 14:10 37.32640 22.38904 34032 ft 435 kts 333°
2026-04-26 14:10 37.38048 22.35469 34031 ft 434 kts 333°
2026-04-26 14:11 37.46025 22.30190 34037 ft 433 kts 332°
2026-04-26 14:11 37.51347 22.26612 34043 ft 433 kts 332°
2026-04-26 14:12 37.56658 22.23031 34042 ft 433 kts 332°
2026-04-26 14:12 37.61966 22.19429 34044 ft 431 kts 331°
2026-04-26 14:13 37.69927 22.14031 34048 ft 434 kts 331°
2026-04-26 14:14 37.75218 22.10454 34047 ft 436 kts 331°
2026-04-26 14:14 37.80565 22.06816 34045 ft 436 kts 330°
2026-04-26 14:15 37.85908 22.03169 34057 ft 436 kts 331°
2026-04-26 14:15 37.91257 21.99532 34059 ft 436 kts 330°
2026-04-26 14:16 37.96603 21.95879 34052 ft 437 kts 330°
2026-04-26 14:16 38.01961 21.92208 34053 ft 437 kts 330°
2026-04-26 14:17 38.07279 21.88564 34053 ft 437 kts 330°
2026-04-26 14:17 38.12628 21.84888 34049 ft 437 kts 330°
2026-04-26 14:18 38.17972 21.81200 34057 ft 437 kts 330°
2026-04-26 14:18 38.23343 21.77543 34050 ft 438 kts 330°
2026-04-26 14:19 38.28700 21.73852 34054 ft 438 kts 330°
2026-04-26 14:19 38.34063 21.70143 34054 ft 438 kts 330°
2026-04-26 14:20 38.39431 21.66431 34046 ft 439 kts 330°
2026-04-26 14:20 38.44778 21.62702 34053 ft 438 kts 329°
2026-04-26 14:21 38.50114 21.58980 34054 ft 437 kts 329°
2026-04-26 14:21 38.55409 21.55282 34045 ft 437 kts 329°
2026-04-26 14:22 38.60741 21.51546 34043 ft 437 kts 329°
2026-04-26 14:22 38.66088 21.47812 34050 ft 437 kts 329°
2026-04-26 14:23 38.71424 21.44083 34046 ft 437 kts 329°
2026-04-26 14:23 38.76762 21.40347 34048 ft 437 kts 329°
2026-04-26 14:24 38.82093 21.36606 34046 ft 437 kts 329°
2026-04-26 14:24 38.87427 21.32854 34058 ft 437 kts 329°
2026-04-26 14:25 38.92722 21.29118 34050 ft 437 kts 329°
2026-04-26 14:25 38.98051 21.25386 34048 ft 436 kts 329°
2026-04-26 14:26 39.03379 21.21644 34053 ft 436 kts 329°
2026-04-26 14:26 39.08698 21.17885 34047 ft 436 kts 329°
2026-04-26 14:27 39.14022 21.14115 34059 ft 436 kts 329°
2026-04-26 14:27 39.19346 21.10330 34065 ft 437 kts 328°
2026-04-26 14:28 39.24647 21.06555 34043 ft 437 kts 328°
2026-04-26 14:28 39.29958 21.02733 34052 ft 437 kts 328°
2026-04-26 14:29 39.35281 20.98906 34035 ft 437 kts 328°
2026-04-26 14:29 39.40606 20.95112 34051 ft 437 kts 328°
2026-04-26 14:30 39.45932 20.91312 34038 ft 435 kts 328°
2026-04-26 14:30 39.51196 20.87540 34031 ft 435 kts 328°
2026-04-26 14:31 39.56484 20.83734 34026 ft 435 kts 328°
2026-04-26 14:31 39.61812 20.79899 34019 ft 435 kts 328°
2026-04-26 14:32 39.67078 20.76093 34031 ft 436 kts 328°
2026-04-26 14:32 39.72369 20.72258 34024 ft 435 kts 328°
2026-04-26 14:33 39.77658 20.68408 34017 ft 436 kts 328°
2026-04-26 14:33 39.82924 20.64590 34020 ft 435 kts 328°
2026-04-26 14:34 39.88209 20.60757 34011 ft 435 kts 328°
2026-04-26 14:34 39.93498 20.56920 34025 ft 434 kts 328°
2026-04-26 14:35 39.98757 20.53084 34026 ft 433 kts 327°
2026-04-26 14:35 40.04010 20.49226 34017 ft 433 kts 327°
2026-04-26 14:36 40.09466 20.45804 34007 ft 439 kts 335°
2026-04-26 14:36 40.15166 20.42919 34018 ft 439 kts 335°
2026-04-26 14:37 40.20839 20.40038 34023 ft 437 kts 335°
2026-04-26 14:37 40.26471 20.37150 34017 ft 437 kts 335°
2026-04-26 14:38 40.32138 20.34250 34016 ft 437 kts 335°
2026-04-26 14:38 40.37806 20.31345 34035 ft 437 kts 335°
2026-04-26 14:39 40.43464 20.28439 34026 ft 435 kts 335°
2026-04-26 14:39 40.49070 20.25558 34035 ft 435 kts 335°
2026-04-26 14:40 40.54709 20.22651 34034 ft 435 kts 335°
2026-04-26 14:40 40.60349 20.19747 34058 ft 435 kts 335°
2026-04-26 14:41 40.65926 20.16867 34045 ft 433 kts 335°
2026-04-26 14:41 40.71574 20.13948 34043 ft 434 kts 335°
2026-04-26 14:42 40.77174 20.11045 34054 ft 435 kts 335°
2026-04-26 14:42 40.82818 20.08106 34048 ft 435 kts 335°
2026-04-26 14:43 40.88455 20.05188 34056 ft 434 kts 335°
2026-04-26 14:43 40.94069 20.02262 34061 ft 434 kts 335°
2026-04-26 14:44 40.99656 19.99336 34059 ft 434 kts 335°
2026-04-26 14:44 41.05277 19.96392 34061 ft 434 kts 335°
2026-04-26 14:45 41.09946 19.93944 34058 ft 434 kts 335°
2026-04-26 14:45 41.15565 19.90987 34070 ft 433 kts 335°
2026-04-26 14:46 41.21170 19.88019 34074 ft 434 kts 335°
2026-04-26 14:46 41.26782 19.85036 34076 ft 434 kts 335°
2026-04-26 14:47 41.32386 19.82067 34083 ft 433 kts 335°
2026-04-26 14:47 41.37952 19.79114 34082 ft 433 kts 335°
2026-04-26 14:48 41.43565 19.76136 34082 ft 434 kts 335°
2026-04-26 14:48 41.49175 19.73162 34080 ft 434 kts 335°
2026-04-26 14:49 41.54787 19.70181 34081 ft 433 kts 335°
2026-04-26 14:49 41.60383 19.67194 34077 ft 433 kts 335°
2026-04-26 14:50 41.65975 19.64197 34071 ft 433 kts 335°
2026-04-26 14:50 41.71525 19.61220 34071 ft 433 kts 335°
2026-04-26 14:51 41.77113 19.58233 34068 ft 432 kts 335°
2026-04-26 14:51 41.82704 19.55242 34061 ft 432 kts 335°
2026-04-26 14:52 41.88290 19.52239 34059 ft 432 kts 335°
2026-04-26 14:52 41.93870 19.49227 34051 ft 432 kts 335°
2026-04-26 14:53 41.99446 19.46210 34044 ft 431 kts 335°
2026-04-26 14:53 42.04985 19.43209 34041 ft 432 kts 335°
2026-04-26 14:54 42.10565 19.40182 34036 ft 432 kts 335°
2026-04-26 14:54 42.16150 19.37144 34035 ft 432 kts 335°
2026-04-26 14:55 42.21721 19.34105 34030 ft 432 kts 335°
2026-04-26 14:55 42.27355 19.31197 34025 ft 433 kts 337°
2026-04-26 14:56 42.32995 19.28331 34023 ft 433 kts 337°
2026-04-26 14:56 42.38626 19.25437 34035 ft 432 kts 335°
2026-04-26 14:57 42.44190 19.22297 34024 ft 433 kts 335°
2026-04-26 14:57 42.49745 19.19128 34025 ft 433 kts 335°
2026-04-26 14:58 42.55271 19.15976 34024 ft 433 kts 335°
2026-04-26 14:58 42.60819 19.12804 34035 ft 433 kts 335°
2026-04-26 14:59 42.66386 19.09612 34037 ft 434 kts 335°
2026-04-26 14:59 42.71918 19.06434 34035 ft 434 kts 335°
2026-04-26 15:00 42.77480 19.03237 34054 ft 434 kts 335°
2026-04-26 15:00 42.83038 19.00034 34045 ft 433 kts 336°
2026-04-26 15:01 42.88592 18.96827 34050 ft 433 kts 335°
2026-04-26 15:01 42.94150 18.93612 34047 ft 433 kts 336°
2026-04-26 15:02 42.99670 18.90412 34049 ft 433 kts 335°
2026-04-26 15:02 43.05224 18.87185 34063 ft 432 kts 335°
2026-04-26 15:03 43.10747 18.83969 34058 ft 431 kts 335°
2026-04-26 15:03 43.16269 18.80749 34061 ft 431 kts 335°
2026-04-26 15:04 43.21785 18.77522 34066 ft 431 kts 335°
2026-04-26 15:04 43.27295 18.74298 34071 ft 433 kts 335°
2026-04-26 15:05 43.32840 18.71046 34075 ft 433 kts 335°
2026-04-26 15:05 43.38475 18.68116 34071 ft 434 kts 339°
2026-04-26 15:06 43.44179 18.65388 34071 ft 434 kts 339°
2026-04-26 15:06 43.49885 18.62651 34080 ft 434 kts 339°
2026-04-26 15:07 43.58397 18.58540 34079 ft 434 kts 339°
2026-04-26 15:07 43.64110 18.55784 34081 ft 434 kts 339°
2026-04-26 15:08 43.69814 18.53025 34086 ft 434 kts 339°
2026-04-26 15:08 43.75508 18.50260 34084 ft 433 kts 339°
2026-04-26 15:09 43.81205 18.47490 34083 ft 435 kts 339°
2026-04-26 15:09 43.86866 18.44734 34082 ft 433 kts 339°
2026-04-26 15:10 43.91638 18.42409 34085 ft 435 kts 339°
2026-04-26 15:10 43.98286 18.39152 34087 ft 436 kts 339°
2026-04-26 15:11 44.04010 18.36344 34089 ft 436 kts 339°
2026-04-26 15:11 44.09732 18.33544 34099 ft 436 kts 339°
2026-04-26 15:12 44.15446 18.30734 34102 ft 433 kts 339°
2026-04-26 15:12 44.21131 18.27921 34099 ft 434 kts 339°
2026-04-26 15:13 44.26795 18.25126 34107 ft 434 kts 339°
2026-04-26 15:13 44.32481 18.22311 34112 ft 433 kts 339°
2026-04-26 15:14 44.38173 18.19491 34110 ft 434 kts 339°
2026-04-26 15:14 44.43861 18.16620 34112 ft 434 kts 339°
2026-04-26 15:15 44.49553 18.13765 34117 ft 435 kts 339°
2026-04-26 15:15 44.55222 18.10933 34121 ft 435 kts 339°
2026-04-26 15:16 44.60928 18.08093 34104 ft 435 kts 339°
2026-04-26 15:16 44.66636 18.05224 34121 ft 436 kts 339°
2026-04-26 15:17 44.71373 18.02819 34122 ft 435 kts 339°
2026-04-26 15:17 44.78047 17.99457 34132 ft 435 kts 339°
2026-04-26 15:18 44.83763 17.96597 34135 ft 435 kts 339°
2026-04-26 15:18 44.89473 17.93738 34126 ft 435 kts 339°
2026-04-26 15:19 44.95142 17.90881 34144 ft 435 kts 339°
2026-04-26 15:19 45.00848 17.87998 34131 ft 436 kts 339°
2026-04-26 15:20 45.06509 17.84967 34129 ft 434 kts 336°
2026-04-26 15:20 45.12097 17.81681 34136 ft 434 kts 336°
2026-04-26 15:21 45.17660 17.78369 34150 ft 434 kts 336°
2026-04-26 15:21 45.23224 17.75084 34137 ft 435 kts 336°
2026-04-26 15:22 45.28831 17.71804 34148 ft 435 kts 336°
2026-04-26 15:22 45.34425 17.68503 34138 ft 435 kts 336°
2026-04-26 15:23 45.40009 17.65185 34138 ft 433 kts 335°
2026-04-26 15:23 45.45531 17.61892 34148 ft 433 kts 335°
2026-04-26 15:24 45.51093 17.58544 34353 ft 434 kts 335°
2026-04-26 15:24 45.53872 17.56872 34579 ft 433 kts 335°
2026-04-26 15:24 45.56642 17.55202 34799 ft 431 kts 335°
2026-04-26 15:25 45.59398 17.53543 35037 ft 429 kts 335°
2026-04-26 15:25 45.61222 17.52448 35151 ft 429 kts 335°
2026-04-26 15:25 45.67717 17.48595 35166 ft 432 kts 336°
2026-04-26 15:26 45.73236 17.45322 35164 ft 432 kts 335°
2026-04-26 15:26 45.76008 17.43654 35275 ft 433 kts 335°
2026-04-26 15:26 45.78780 17.41985 35479 ft 431 kts 335°
2026-04-26 15:27 45.81537 17.40311 35708 ft 429 kts 335°
2026-04-26 15:27 45.84281 17.38654 35970 ft 426 kts 335°
2026-04-26 15:27 45.87003 17.37016 36168 ft 425 kts 335°
2026-04-26 15:27 45.89738 17.35363 36203 ft 427 kts 335°
2026-04-26 15:28 45.95238 17.32027 36180 ft 429 kts 335°
2026-04-26 15:28 46.00791 17.28868 36165 ft 430 kts 339°
2026-04-26 15:29 46.06381 17.26006 36172 ft 429 kts 336°
2026-04-26 15:30 46.17519 17.19824 36182 ft 428 kts 336°
2026-04-26 15:30 46.23093 17.16740 36179 ft 428 kts 336°
2026-04-26 15:31 46.31448 17.12107 36192 ft 428 kts 336°
2026-04-26 15:32 46.37923 17.08517 36185 ft 429 kts 336°
2026-04-26 15:32 46.45335 17.04381 36199 ft 429 kts 336°
2026-04-26 15:33 46.50903 17.01267 36196 ft 429 kts 336°
2026-04-26 15:33 46.56475 16.98160 36206 ft 428 kts 336°
2026-04-26 15:34 46.61095 16.95554 36200 ft 428 kts 336°
2026-04-26 15:34 46.66649 16.92424 36200 ft 428 kts 336°
2026-04-26 15:35 46.72204 16.89301 36202 ft 428 kts 336°
2026-04-26 15:35 46.77768 16.86162 36212 ft 428 kts 336°
2026-04-26 15:36 46.83320 16.83019 36203 ft 427 kts 336°
2026-04-26 15:36 46.88869 16.79871 36200 ft 427 kts 336°
2026-04-26 15:37 46.94384 16.76750 36204 ft 427 kts 336°
2026-04-26 15:37 46.99935 16.73585 36224 ft 427 kts 335°
2026-04-26 15:38 47.05446 16.70391 36208 ft 425 kts 335°
2026-04-26 15:38 47.10958 16.67253 36203 ft 425 kts 336°
2026-04-26 15:39 47.16459 16.64127 36203 ft 423 kts 335°
2026-04-26 15:39 47.21023 16.61516 36205 ft 423 kts 335°
2026-04-26 15:40 47.27432 16.57809 36206 ft 424 kts 335°
2026-04-26 15:40 47.32934 16.54642 36204 ft 424 kts 335°
2026-04-26 15:41 47.38387 16.51492 36204 ft 424 kts 335°
2026-04-26 15:41 47.43879 16.48307 36205 ft 424 kts 335°
2026-04-26 15:42 47.49375 16.45101 36209 ft 425 kts 335°
2026-04-26 15:42 47.54890 16.41894 36205 ft 425 kts 335°
2026-04-26 15:43 47.60404 16.38675 36204 ft 426 kts 335°
2026-04-26 15:44 47.68634 16.33839 36208 ft 426 kts 334°
2026-04-26 15:44 47.76900 16.28987 36217 ft 426 kts 335°
2026-04-26 15:45 47.85155 16.24124 36206 ft 426 kts 335°
2026-04-26 15:46 47.93465 16.19218 36243 ft 428 kts 335°
2026-04-26 15:46 47.98053 16.16497 36226 ft 426 kts 335°
2026-04-26 15:47 48.07200 16.11002 36237 ft 426 kts 335°
2026-04-26 15:48 48.12723 16.07751 36237 ft 426 kts 335°
2026-04-26 15:48 48.18231 16.04455 36249 ft 426 kts 334°
2026-04-26 15:49 48.23729 16.01167 36237 ft 425 kts 334°
2026-04-26 15:49 48.29184 15.97899 36238 ft 424 kts 334°
2026-04-26 15:50 48.34672 15.94593 36239 ft 424 kts 334°
2026-04-26 15:50 48.40135 15.91242 36238 ft 424 kts 334°
2026-04-26 15:51 48.45613 15.87921 36242 ft 425 kts 334°
2026-04-26 15:51 48.51113 15.84619 36235 ft 425 kts 334°
2026-04-26 15:52 48.56598 15.81293 36238 ft 425 kts 334°
2026-04-26 15:52 48.62093 15.77958 36237 ft 425 kts 334°
2026-04-26 15:53 48.67593 15.74604 36250 ft 426 kts 334°
2026-04-26 15:53 48.73050 15.71266 36240 ft 425 kts 334°
2026-04-26 15:54 48.78528 15.67894 36241 ft 425 kts 334°
2026-04-26 15:54 48.84004 15.64521 36245 ft 425 kts 334°
2026-04-26 15:55 48.89442 15.61000 36244 ft 422 kts 328°
2026-04-26 15:55 48.94543 15.56626 36255 ft 420 kts 326°
2026-04-26 15:56 48.99625 15.52198 36251 ft 420 kts 327°
2026-04-26 15:56 49.04706 15.47780 36255 ft 420 kts 327°
2026-04-26 15:57 49.09748 15.43375 36261 ft 420 kts 326°
2026-04-26 15:57 49.14817 15.38935 36265 ft 420 kts 326°
2026-04-26 15:58 49.19881 15.34489 36267 ft 419 kts 326°
2026-04-26 15:58 49.24944 15.30047 36268 ft 419 kts 326°
2026-04-26 15:59 49.29962 15.25628 36262 ft 419 kts 326°
2026-04-26 15:59 49.35043 15.21144 36268 ft 419 kts 326°
2026-04-26 16:00 49.40051 15.16702 36278 ft 419 kts 326°
2026-04-26 16:00 49.45080 15.12190 36278 ft 418 kts 326°
2026-04-26 16:01 49.50113 15.07697 36272 ft 418 kts 326°
2026-04-26 16:01 49.55160 15.03191 36270 ft 418 kts 326°
2026-04-26 16:02 49.60193 14.98696 36271 ft 418 kts 326°
2026-04-26 16:02 49.65243 14.94234 36271 ft 418 kts 326°
2026-04-26 16:03 49.70254 14.89761 36279 ft 418 kts 326°
2026-04-26 16:03 49.75287 14.85240 36275 ft 418 kts 326°
2026-04-26 16:04 49.80302 14.80710 36276 ft 418 kts 326°
2026-04-26 16:04 49.85322 14.76168 36278 ft 417 kts 326°
2026-04-26 16:05 49.90333 14.71607 36277 ft 417 kts 326°
2026-04-26 16:05 49.95334 14.67027 36300 ft 417 kts 326°
2026-04-26 16:06 50.00335 14.62464 36292 ft 417 kts 326°
2026-04-26 16:06 50.05338 14.57892 36289 ft 417 kts 326°
2026-04-26 16:07 50.10311 14.53345 36289 ft 417 kts 326°
2026-04-26 16:07 50.15307 14.48744 36289 ft 417 kts 326°
2026-04-26 16:08 50.20300 14.44150 36289 ft 417 kts 326°
2026-04-26 16:08 50.25304 14.39541 36287 ft 417 kts 326°
2026-04-26 16:09 50.30310 14.34930 36284 ft 417 kts 326°
2026-04-26 16:09 50.35269 14.30334 36288 ft 417 kts 326°
2026-04-26 16:10 50.40261 14.25689 36290 ft 417 kts 326°
2026-04-26 16:10 50.45258 14.21033 36289 ft 417 kts 326°
2026-04-26 16:11 50.50266 14.16351 36291 ft 417 kts 326°
2026-04-26 16:11 50.55223 14.11704 36287 ft 417 kts 326°
2026-04-26 16:12 50.60216 14.07038 36294 ft 417 kts 326°
2026-04-26 16:12 50.67719 14.00045 36305 ft 417 kts 326°
2026-04-26 16:13 50.72706 13.95336 36300 ft 418 kts 326°
2026-04-26 16:13 50.77688 13.90617 36300 ft 418 kts 326°
2026-04-26 16:14 50.82619 13.85772 36302 ft 417 kts 323°
2026-04-26 16:15 50.89884 13.78288 36310 ft 417 kts 323°
2026-04-26 16:15 50.94747 13.73267 36314 ft 417 kts 323°
2026-04-26 16:16 51.02031 13.65708 36327 ft 416 kts 323°
2026-04-26 16:16 51.06865 13.60685 36318 ft 415 kts 323°
2026-04-26 16:17 51.11703 13.55651 36318 ft 415 kts 323°
2026-04-26 16:17 51.16529 13.50600 36316 ft 415 kts 323°
2026-04-26 16:18 51.23773 13.43007 36306 ft 415 kts 323°
2026-04-26 16:19 51.30986 13.35428 36321 ft 414 kts 323°
2026-04-26 16:20 51.38182 13.27816 36309 ft 413 kts 323°
2026-04-26 16:20 51.44574 13.21044 36320 ft 413 kts 323°
2026-04-26 16:21 51.49367 13.15942 36323 ft 413 kts 323°
2026-04-26 16:21 51.54150 13.10845 36337 ft 413 kts 323°
2026-04-26 16:22 51.58933 13.05727 36335 ft 412 kts 323°
2026-04-26 16:22 51.63707 13.00616 36314 ft 412 kts 323°
2026-04-26 16:23 51.68477 12.95476 36309 ft 412 kts 323°
2026-04-26 16:23 51.73234 12.90325 36308 ft 412 kts 323°
2026-04-26 16:24 51.77976 12.85217 36312 ft 412 kts 323°
2026-04-26 16:24 51.82733 12.80047 36328 ft 412 kts 323°
2026-04-26 16:25 51.87485 12.74863 36315 ft 410 kts 323°
2026-04-26 16:25 51.92266 12.69711 36319 ft 412 kts 323°
2026-04-26 16:26 51.96999 12.64574 36319 ft 412 kts 323°
2026-04-26 16:26 52.01759 12.59373 36318 ft 412 kts 323°
2026-04-26 16:27 52.06510 12.54154 36316 ft 412 kts 323°
2026-04-26 16:27 52.11265 12.48931 36327 ft 412 kts 323°
2026-04-26 16:28 52.15993 12.43714 36320 ft 409 kts 323°
2026-04-26 16:28 52.20706 12.38504 36311 ft 411 kts 322°
2026-04-26 16:29 52.25412 12.33286 36316 ft 412 kts 322°
2026-04-26 16:29 52.30157 12.28013 36323 ft 412 kts 322°
2026-04-26 16:30 52.34894 12.22734 36318 ft 412 kts 322°
2026-04-26 16:30 52.39626 12.17447 36334 ft 411 kts 322°
2026-04-26 16:31 52.44347 12.12164 36328 ft 410 kts 322°
2026-04-26 16:31 52.49054 12.06881 36326 ft 410 kts 322°
2026-04-26 16:32 52.52964 12.02475 36311 ft 411 kts 322°
2026-04-26 16:32 52.58483 11.96244 36319 ft 412 kts 322°
2026-04-26 16:33 52.63204 11.90889 36321 ft 412 kts 321°
2026-04-26 16:33 52.67735 11.85229 36332 ft 410 kts 319°
2026-04-26 16:34 52.72258 11.79497 36323 ft 409 kts 319°
2026-04-26 16:34 52.74515 11.76637 36187 ft 407 kts 319°
2026-04-26 16:34 52.76771 11.73770 35086 ft 414 kts 319°
2026-04-26 16:35 52.79074 11.70835 33997 ft 421 kts 319°
2026-04-26 16:35 52.81402 11.67870 32902 ft 424 kts 319°
2026-04-26 16:35 52.83748 11.64882 31842 ft 426 kts 319°
2026-04-26 16:35 52.86084 11.61899 30715 ft 432 kts 319°
2026-04-26 16:36 52.88507 11.58804 29523 ft 435 kts 319°
2026-04-26 16:36 52.90871 11.55775 28464 ft 435 kts 319°
2026-04-26 16:36 52.93248 11.52712 27612 ft 431 kts 319°
2026-04-26 16:36 52.95631 11.49646 26829 ft 425 kts 319°
2026-04-26 16:37 52.97915 11.46699 26143 ft 419 kts 319°
2026-04-26 16:37 53.00198 11.43743 25486 ft 413 kts 319°
2026-04-26 16:37 53.02452 11.40841 24809 ft 408 kts 319°
2026-04-26 16:37 53.03942 11.38922 24364 ft 404 kts 319°
2026-04-26 16:38 53.06888 11.35114 23415 ft 397 kts 319°
2026-04-26 16:38 53.09051 11.32325 22716 ft 390 kts 320°
2026-04-26 16:38 53.11167 11.29546 22099 ft 382 kts 317°
2026-04-26 16:38 53.13114 11.26634 21711 ft 371 kts 315°
2026-04-26 16:39 53.15015 11.23714 21425 ft 371 kts 315°
2026-04-26 16:39 53.16909 11.20812 21155 ft 370 kts 315°
2026-04-26 16:39 53.18812 11.17934 20899 ft 368 kts 316°
2026-04-26 16:39 53.20690 11.15114 20650 ft 367 kts 316°
2026-04-26 16:40 53.22566 11.12285 20176 ft 361 kts 316°
2026-04-26 16:40 53.24413 11.09486 19699 ft 353 kts 316°
2026-04-26 16:40 53.26195 11.06777 19477 ft 339 kts 316°
2026-04-26 16:40 53.27899 11.04183 19336 ft 323 kts 316°
2026-04-26 16:41 53.29518 11.01712 19215 ft 308 kts 316°
2026-04-26 16:41 53.31078 10.99331 19104 ft 302 kts 316°
2026-04-26 16:41 53.32628 10.96960 18971 ft 302 kts 316°
2026-04-26 16:41 53.34172 10.94597 18740 ft 301 kts 316°
2026-04-26 16:42 53.35720 10.92224 18487 ft 300 kts 316°
2026-04-26 16:42 53.37252 10.89874 18114 ft 298 kts 316°
2026-04-26 16:42 53.38777 10.87536 17634 ft 296 kts 316°
2026-04-26 16:42 53.40288 10.85214 17139 ft 295 kts 316°
2026-04-26 16:43 53.41802 10.82887 16655 ft 293 kts 316°
2026-04-26 16:43 53.43298 10.80583 16180 ft 291 kts 316°
2026-04-26 16:43 53.44766 10.78320 15710 ft 289 kts 316°
2026-04-26 16:43 53.46261 10.76015 15211 ft 287 kts 316°
2026-04-26 16:44 53.47734 10.73742 14660 ft 288 kts 316°
2026-04-26 16:44 53.49192 10.71489 14117 ft 289 kts 316°
2026-04-26 16:44 53.50672 10.69199 13514 ft 289 kts 316°
2026-04-26 16:44 53.52159 10.66894 12933 ft 289 kts 317°
2026-04-26 16:45 53.53633 10.64607 12355 ft 285 kts 317°
2026-04-26 16:45 53.55073 10.62374 11884 ft 278 kts 317°
2026-04-26 16:45 53.56475 10.60198 11477 ft 270 kts 317°
2026-04-26 16:45 53.57828 10.58093 11144 ft 260 kts 317°
2026-04-26 16:46 53.59131 10.56062 10869 ft 251 kts 317°
2026-04-26 16:46 53.60396 10.54093 10624 ft 243 kts 317°
2026-04-26 16:46 53.61618 10.52191 10398 ft 236 kts 317°
2026-04-26 16:46 53.62820 10.50316 10173 ft 234 kts 317°
2026-04-26 16:47 53.64013 10.48454 9928 ft 234 kts 317°
2026-04-26 16:47 53.65191 10.46614 9708 ft 233 kts 317°
2026-04-26 16:47 53.66381 10.44754 9459 ft 233 kts 318°
2026-04-26 16:47 53.67771 10.43391 9200 ft 234 kts 344°
2026-04-26 16:48 53.69401 10.43371 8969 ft 240 kts 12°
2026-04-26 16:48 53.70924 10.44570 8746 ft 245 kts 32°
2026-04-26 16:48 53.72102 10.46683 8512 ft 250 kts 51°
2026-04-26 16:48 53.73066 10.49138 8269 ft 251 kts 54°
2026-04-26 16:49 53.74005 10.51624 8021 ft 250 kts 54°
2026-04-26 16:49 53.74943 10.54101 7774 ft 250 kts 54°
2026-04-26 16:49 53.75870 10.56535 7539 ft 249 kts 54°
2026-04-26 16:49 53.76854 10.58938 7285 ft 246 kts 43°
2026-04-26 16:50 53.78255 10.60496 7034 ft 240 kts 14°
2026-04-26 16:50 53.79878 10.60716 6709 ft 233 kts 346°
2026-04-26 16:50 53.81315 10.59593 6360 ft 228 kts 320°
2026-04-26 16:50 53.82495 10.57799 5994 ft 227 kts 312°
2026-04-26 16:51 53.83257 10.55502 5605 ft 225 kts 282°
2026-04-26 16:51 53.83317 10.52864 5245 ft 224 kts 266°
2026-04-26 16:51 53.83169 10.50240 5019 ft 225 kts 264°
2026-04-26 16:51 53.83009 10.47614 4972 ft 223 kts 264°
2026-04-26 16:52 53.82858 10.45011 4981 ft 222 kts 264°
2026-04-26 16:52 53.82757 10.43284 5000 ft 223 kts 264°
2026-04-26 16:52 53.82517 10.39799 5008 ft 222 kts 255°
2026-04-26 16:52 53.81891 10.37402 4998 ft 223 kts 239°
2026-04-26 16:53 53.80996 10.35297 5006 ft 223 kts 230°
2026-04-26 16:53 53.79981 10.33303 4965 ft 223 kts 232°
2026-04-26 16:53 53.78988 10.31276 4787 ft 223 kts 231°
2026-04-26 16:53 53.78005 10.29269 4531 ft 222 kts 231°
2026-04-26 16:54 53.77011 10.27240 4245 ft 223 kts 231°
2026-04-26 16:54 53.76026 10.25230 3955 ft 222 kts 231°
2026-04-26 16:54 53.75036 10.23212 3660 ft 223 kts 231°
2026-04-26 16:54 53.74046 10.21194 3357 ft 221 kts 231°
2026-04-26 16:55 53.73078 10.19224 3035 ft 215 kts 232°
2026-04-26 16:55 53.72147 10.17328 2803 ft 202 kts 232°
2026-04-26 16:55 53.71283 10.15569 2548 ft 193 kts 233°
2026-04-26 16:55 53.70444 10.13863 2266 ft 185 kts 234°
2026-04-26 16:56 53.68894 10.10711 1785 ft 158 kts 233°
2026-04-26 16:56 53.68235 10.09374 1525 ft 137 kts 236°
2026-04-26 16:56 53.67637 10.08159 1329 ft 134 kts 236°
2026-04-26 16:57 53.67047 10.06952 1187 ft 134 kts 234°
2026-04-26 16:57 53.66447 10.05746 937 ft 134 kts 234°
2026-04-26 16:57 53.65246 10.03307 601 ft 135 kts 235°
2026-04-26 16:58 53.64649 10.02080 431 ft 135 kts 234°
2026-04-26 16:58 53.64455 10.01688 374 ft 134 kts 234°
2026-04-26 16:58 53.62910 9.98555 50 ft 108 kts 229°
2026-04-26 16:59 53.62538 9.97809 46 ft 55 kts 230°
2026-04-26 16:59 53.62235 9.97374 45 ft 18 kts 151°
2026-04-26 17:00 53.62203 9.97633 52 ft 11 kts 53°
2026-04-26 17:00 53.62314 9.97856 52 ft 13 kts 50°
2026-04-26 17:00 53.62372 9.97973 52 ft 13 kts 50°
2026-04-26 17:01 53.62439 9.98094 52 ft 15 kts 41°
2026-04-26 17:01 53.62506 9.98190 52 ft 11 kts 43°
2026-04-26 17:01 53.62561 9.98291 52 ft 12 kts 51°
2026-04-26 17:01 53.62620 9.98411 52 ft 14 kts 50°
2026-04-26 17:02 53.62687 9.98545 52 ft 15 kts 50°
2026-04-26 17:02 53.62750 9.98674 52 ft 13 kts 50°
2026-04-26 17:02 53.62791 9.98757 52 ft 14 kts 50°
2026-04-26 17:02 53.62852 9.98881 52 ft 9 kts 50°
2026-04-26 17:03 53.62897 9.98971 52 ft 11 kts 50°
2026-04-26 17:03 53.62950 9.99078 52 ft 13 kts 50°
2026-04-26 17:03 53.63008 9.99197 52 ft 13 kts 51°
2026-04-26 17:03 53.63061 9.99308 52 ft 12 kts 54°
2026-04-26 17:04 53.63111 9.99430 51 ft 13 kts 56°
2026-04-26 17:04 53.63163 9.99553 52 ft 12 kts 51°
2026-04-26 17:04 53.63207 9.99643 53 ft 8 kts 50°
2026-04-26 17:04 53.63227 9.99735 54 ft 9 kts 107°
2026-04-26 17:05 53.63174 9.99802 54 ft 10 kts 153°
2026-04-26 17:05 53.63108 9.99859 54 ft 11 kts 153°
2026-04-26 17:05 53.63036 9.99920 54 ft 12 kts 153°
2026-04-26 17:05 53.62969 9.99980 54 ft 8 kts 150°
2026-04-26 17:06 53.62943 10.00060 54 ft 9 kts 81°
2026-04-26 17:06 53.62987 10.00136 54 ft 9 kts 32°
2026-04-26 17:06 53.63031 10.00185 51 ft 6 kts 33°
2026-04-26 17:06 53.63053 10.00220 54 ft 5 kts 60°
2026-04-26 17:07 53.63056 10.00272 54 ft 4 kts 107°
2026-04-26 17:07 53.63043 10.00316 53 ft 4 kts 122°
2026-04-26 17:07 53.63034 10.00340 54 ft 1 kts 122°
2026-04-26 17:07 53.63032 10.00344 54 ft 0 kts 121°